Time,TemperatureF,DewpointF,PressureIn,WindDirection,WindDirectionDegrees,WindSpeedMPH,WindSpeedGustMPH,Humidity,HourlyPrecipIn,Conditions,Clouds,dailyrainin,SoftwareType,DateUTC
2013-09-06 00:02:00,52.3,49.9,30.11,North,0,0.0,0.0,91,-99.99,,,-99.99,PWS SA v1.10,2013-09-06 04:02:00,
2013-09-06 00:06:00,52.0,50.0,30.11,North,0,0.0,0.0,92,-99.99,,,-99.99,PWS SA v1.10,2013-09-06 04:06:00,
2013-09-06 00:10:00,52.0,49.8,30.11,North,0,0.0,0.0,92,-99.99,,,-99.99,PWS SA v1.10,2013-09-06 04:10:00,
2013-09-06 00:16:00,52.1,50.0,30.11,North,0,0.0,0.0,92,-99.99,,,-99.99,PWS SA v1.10,2013-09-06 04:16:00,
2013-09-06 00:22:00,52.2,49.7,30.11,North,0,0.0,0.0,91,-99.99,,,-99.99,PWS SA v1.10,2013-09-06 04:22:00,
2013-09-06 00:24:00,52.2,49.5,30.11,North,0,0.0,0.0,90,-99.99,,,-99.99,PWS SA v1.10,2013-09-06 04:24:00,
2013-09-06 00:30:00,52.2,49.5,30.11,North,0,0.0,0.0,90,-99.99,,,-99.99,PWS SA v1.10,2013-09-06 04:30:00,
2013-09-06 00:36:00,52.1,49.4,30.11,North,0,0.0,0.0,90,-99.99,,,-99.99,PWS SA v1.10,2013-09-06 04:36:00,
2013-09-06 00:42:00,52.3,49.2,30.12,North,0,0.0,0.0,89,-99.99,,,-99.99,PWS SA v1.10,2013-09-06 04:42:00,
2013-09-06 00:48:00,52.3,49.2,30.11,North,0,0.0,0.0,89,-99.99,,,-99.99,PWS SA v1.10,2013-09-06 04:48:00,
2013-09-06 00:54:00,52.4,49.4,30.11,North,0,0.0,0.0,89,-99.99,,,-99.99,PWS SA v1.10,2013-09-06 04:54:00,
2013-09-06 01:00:00,52.4,49.4,30.12,North,0,0.0,0.0,89,-99.99,,,-99.99,PWS SA v1.10,2013-09-06 05:00:00,
2013-09-06 01:06:00,52.4,49.2,30.12,North,0,0.0,0.0,89,-99.99,,,-99.99,PWS SA v1.10,2013-09-06 05:06:00,
2013-09-06 01:12:00,52.1,48.6,30.13,North,0,0.0,0.0,87,-99.99,,,-99.99,PWS SA v1.10,2013-09-06 05:12:00,
2013-09-06 01:18:00,52.0,48.9,30.12,North,0,0.0,0.0,88,-99.99,,,-99.99,PWS SA v1.10,2013-09-06 05:18:00,
2013-09-06 01:20:00,52.1,48.8,30.12,North,0,0.0,0.0,88,-99.99,,,-99.99,PWS SA v1.10,2013-09-06 05:20:00,
2013-09-06 01:26:00,51.9,48.5,30.12,North,0,0.0,0.0,88,-99.99,,,-99.99,PWS SA v1.10,2013-09-06 05:26:00,
2013-09-06 01:32:00,51.8,48.1,30.12,North,0,0.0,0.0,87,-99.99,,,-99.99,PWS SA v1.10,2013-09-06 05:32:00,
2013-09-06 01:38:00,51.8,48.1,30.12,North,0,0.0,0.0,87,-99.99,,,-99.99,PWS SA v1.10,2013-09-06 05:38:00,
2013-09-06 01:44:00,51.8,48.4,30.12,North,0,0.0,0.0,88,-99.99,,,-99.99,PWS SA v1.10,2013-09-06 05:44:00,
2013-09-06 01:50:00,51.6,48.2,30.12,North,0,0.0,0.0,87,-99.99,,,-99.99,PWS SA v1.10,2013-09-06 05:50:00,
2013-09-06 01:56:00,51.6,47.3,30.12,North,0,0.0,0.0,85,-99.99,,,-99.99,PWS SA v1.10,2013-09-06 05:56:00,
2013-09-06 02:02:00,51.5,48.0,30.12,North,0,0.0,0.0,87,-99.99,,,-99.99,PWS SA v1.10,2013-09-06 06:02:00,
2013-09-06 02:08:00,51.5,48.1,30.12,North,0,0.0,0.0,87,-99.99,,,-99.99,PWS SA v1.10,2013-09-06 06:08:00,
2013-09-06 02:14:00,51.6,48.3,30.12,North,0,0.0,0.0,88,-99.99,,,-99.99,PWS SA v1.10,2013-09-06 06:14:00,
2013-09-06 02:20:00,51.6,48.3,30.12,North,0,0.0,0.0,88,-99.99,,,-99.99,PWS SA v1.10,2013-09-06 06:20:00,
2013-09-06 02:26:00,51.3,47.9,30.13,North,0,0.0,0.0,87,-99.99,,,-99.99,PWS SA v1.10,2013-09-06 06:26:00,
2013-09-06 02:32:00,51.1,47.5,30.12,North,0,0.0,0.0,86,-99.99,,,-99.99,PWS SA v1.10,2013-09-06 06:32:00,
2013-09-06 02:38:00,51.2,47.5,30.13,North,0,0.0,0.0,87,-99.99,,,-99.99,PWS SA v1.10,2013-09-06 06:38:00,
2013-09-06 02:44:00,51.0,48.0,30.13,North,0,0.0,0.0,89,-99.99,,,-99.99,PWS SA v1.10,2013-09-06 06:44:00,
2013-09-06 02:50:00,51.0,47.0,30.13,North,0,0.0,0.0,86,-99.99,,,-99.99,PWS SA v1.10,2013-09-06 06:50:00,
2013-09-06 02:56:00,50.9,47.2,30.13,North,0,0.0,0.0,87,-99.99,,,-99.99,PWS SA v1.10,2013-09-06 06:56:00,
2013-09-06 03:02:00,50.7,47.7,30.13,North,0,0.0,0.0,88,-99.99,,,-99.99,PWS SA v1.10,2013-09-06 07:02:00,
2013-09-06 03:08:00,50.6,47.4,30.13,North,0,0.0,0.0,88,-99.99,,,-99.99,PWS SA v1.10,2013-09-06 07:08:00,
2013-09-06 03:14:00,50.4,47.3,30.13,North,0,0.0,0.0,88,-99.99,,,-99.99,PWS SA v1.10,2013-09-06 07:14:00,
2013-09-06 03:20:00,50.2,47.4,30.13,North,0,0.0,0.0,89,-99.99,,,-99.99,PWS SA v1.10,2013-09-06 07:20:00,
2013-09-06 03:26:00,50.0,47.2,30.13,North,0,0.0,0.0,89,-99.99,,,-99.99,PWS SA v1.10,2013-09-06 07:26:00,
2013-09-06 03:32:00,50.0,47.3,30.14,North,0,0.0,0.0,89,-99.99,,,-99.99,PWS SA v1.10,2013-09-06 07:32:00,
2013-09-06 03:38:00,49.6,46.9,30.14,North,0,0.0,0.0,89,-99.99,,,-99.99,PWS SA v1.10,2013-09-06 07:38:00,
2013-09-06 03:44:00,49.3,46.8,30.14,North,0,0.0,0.0,89,-99.99,,,-99.99,PWS SA v1.10,2013-09-06 07:44:00,
2013-09-06 03:50:00,49.4,46.9,30.15,North,0,0.0,0.0,90,-99.99,,,-99.99,PWS SA v1.10,2013-09-06 07:50:00,
2013-09-06 03:56:00,49.1,47.1,30.15,North,0,0.0,0.0,91,-99.99,,,-99.99,PWS SA v1.10,2013-09-06 07:56:00,
2013-09-06 04:02:00,49.0,46.7,30.15,North,0,0.0,0.0,91,-99.99,,,-99.99,PWS SA v1.10,2013-09-06 08:02:00,
2013-09-06 04:08:00,48.5,46.5,30.15,North,0,0.0,0.0,92,-99.99,,,-99.99,PWS SA v1.10,2013-09-06 08:08:00,
2013-09-06 04:14:00,48.8,46.8,30.15,North,0,0.0,0.0,92,-99.99,,,-99.99,PWS SA v1.10,2013-09-06 08:14:00,
2013-09-06 04:20:00,48.6,46.6,30.15,North,0,0.0,0.0,92,-99.99,,,-99.99,PWS SA v1.10,2013-09-06 08:20:00,
2013-09-06 04:26:00,48.8,47.2,30.15,North,0,0.0,0.0,94,-99.99,,,-99.99,PWS SA v1.10,2013-09-06 08:26:00,
2013-09-06 04:32:00,48.5,46.7,30.15,North,0,0.0,0.0,92,-99.99,,,-99.99,PWS SA v1.10,2013-09-06 08:32:00,
2013-09-06 04:38:00,48.8,46.9,30.16,North,0,0.0,0.0,92,-99.99,,,-99.99,PWS SA v1.10,2013-09-06 08:38:00,
2013-09-06 04:44:00,48.6,46.3,30.16,North,0,0.0,0.0,91,-99.99,,,-99.99,PWS SA v1.10,2013-09-06 08:44:00,
2013-09-06 04:50:00,48.5,46.4,30.16,North,0,0.0,0.0,91,-99.99,,,-99.99,PWS SA v1.10,2013-09-06 08:50:00,
2013-09-06 04:56:00,48.4,46.3,30.16,North,0,0.0,0.0,91,-99.99,,,-99.99,PWS SA v1.10,2013-09-06 08:56:00,
2013-09-06 05:02:00,48.4,46.4,30.16,North,0,0.0,0.0,92,-99.99,,,-99.99,PWS SA v1.10,2013-09-06 09:02:00,
2013-09-06 05:08:00,48.2,46.5,30.17,North,0,0.0,0.0,93,-99.99,,,-99.99,PWS SA v1.10,2013-09-06 09:08:00,
2013-09-06 05:14:00,48.2,46.4,30.16,North,0,0.0,0.0,93,-99.99,,,-99.99,PWS SA v1.10,2013-09-06 09:14:00,
2013-09-06 05:20:00,48.0,46.1,30.16,North,0,0.0,0.0,93,-99.99,,,-99.99,PWS SA v1.10,2013-09-06 09:20:00,
2013-09-06 05:26:00,48.0,46.3,30.16,North,0,0.0,0.0,93,-99.99,,,-99.99,PWS SA v1.10,2013-09-06 09:26:00,
2013-09-06 05:32:00,47.7,46.0,30.16,North,0,0.0,0.0,93,-99.99,,,-99.99,PWS SA v1.10,2013-09-06 09:32:00,
2013-09-06 05:38:00,47.5,45.9,30.17,North,0,0.0,0.0,93,-99.99,,,-99.99,PWS SA v1.10,2013-09-06 09:38:00,
2013-09-06 05:44:00,47.6,46.0,30.16,North,0,0.0,0.0,93,-99.99,,,-99.99,PWS SA v1.10,2013-09-06 09:44:00,
2013-09-06 05:50:00,47.6,45.6,30.16,North,0,0.0,0.0,92,-99.99,,,-99.99,PWS SA v1.10,2013-09-06 09:50:00,
2013-09-06 05:56:00,47.5,45.7,30.16,North,0,0.0,0.0,93,-99.99,,,-99.99,PWS SA v1.10,2013-09-06 09:56:00,
2013-09-06 06:02:00,47.5,45.4,30.17,North,0,0.0,0.0,92,-99.99,,,-99.99,PWS SA v1.10,2013-09-06 10:02:00,
2013-09-06 06:08:00,47.4,45.4,30.17,North,0,0.0,0.0,92,-99.99,,,-99.99,PWS SA v1.10,2013-09-06 10:08:00,
2013-09-06 06:14:00,47.5,45.4,30.17,North,0,0.0,0.0,92,-99.99,,,-99.99,PWS SA v1.10,2013-09-06 10:14:00,
2013-09-06 06:20:00,47.1,45.3,30.17,North,0,0.0,0.0,92,-99.99,,,-99.99,PWS SA v1.10,2013-09-06 10:20:00,
2013-09-06 06:26:00,47.1,45.5,30.17,North,0,0.0,0.0,93,-99.99,,,-99.99,PWS SA v1.10,2013-09-06 10:26:00,
2013-09-06 06:32:00,47.1,45.2,30.17,North,0,0.0,0.0,92,-99.99,,,-99.99,PWS SA v1.10,2013-09-06 10:32:00,
2013-09-06 06:38:00,47.1,45.3,30.18,North,0,0.0,0.0,92,-99.99,,,-99.99,PWS SA v1.10,2013-09-06 10:38:00,
2013-09-06 06:44:00,47.3,45.5,30.18,North,0,0.0,0.0,93,-99.99,,,-99.99,PWS SA v1.10,2013-09-06 10:44:00,
2013-09-06 06:50:00,47.3,45.6,30.19,North,0,0.0,0.0,94,-99.99,,,-99.99,PWS SA v1.10,2013-09-06 10:50:00,
2013-09-06 06:56:00,47.4,45.6,30.19,North,0,0.0,0.0,94,-99.99,,,-99.99,PWS SA v1.10,2013-09-06 10:56:00,
2013-09-06 07:02:00,47.3,45.4,30.19,North,0,0.0,0.0,93,-99.99,,,-99.99,PWS SA v1.10,2013-09-06 11:02:00,
2013-09-06 07:08:00,47.6,46.0,30.19,North,0,0.0,0.0,94,-99.99,,,-99.99,PWS SA v1.10,2013-09-06 11:08:00,
2013-09-06 07:14:00,47.7,45.9,30.19,North,0,0.0,0.0,93,-99.99,,,-99.99,PWS SA v1.10,2013-09-06 11:14:00,
2013-09-06 07:20:00,48.0,45.9,30.19,North,0,0.0,0.0,92,-99.99,,,-99.99,PWS SA v1.10,2013-09-06 11:20:00,
2013-09-06 07:26:00,48.3,46.6,30.19,North,0,0.0,0.0,94,-99.99,,,-99.99,PWS SA v1.10,2013-09-06 11:26:00,
2013-09-06 07:32:00,48.4,46.2,30.19,North,0,0.0,0.0,93,-99.99,,,-99.99,PWS SA v1.10,2013-09-06 11:32:00,
2013-09-06 07:38:00,48.8,46.5,30.20,North,0,0.0,0.0,91,-99.99,,,-99.99,PWS SA v1.10,2013-09-06 11:38:00,
2013-09-06 07:44:00,49.2,46.9,30.19,North,0,0.0,0.0,92,-99.99,,,-99.99,PWS SA v1.10,2013-09-06 11:44:00,
2013-09-06 07:50:00,49.2,47.3,30.19,North,0,0.0,0.0,93,-99.99,,,-99.99,PWS SA v1.10,2013-09-06 11:50:00,
2013-09-06 07:56:00,49.6,47.0,30.19,North,0,0.0,0.0,91,-99.99,,,-99.99,PWS SA v1.10,2013-09-06 11:56:00,
2013-09-06 08:02:00,50.1,46.4,30.19,North,0,0.0,0.0,87,-99.99,,,-99.99,PWS SA v1.10,2013-09-06 12:02:00,
2013-09-06 08:08:00,50.4,46.8,30.19,North,0,0.0,0.0,87,-99.99,,,-99.99,PWS SA v1.10,2013-09-06 12:08:00,
2013-09-06 08:14:00,50.8,47.1,30.19,North,0,0.0,0.0,87,-99.99,,,-99.99,PWS SA v1.10,2013-09-06 12:14:00,
2013-09-06 08:20:00,51.1,46.4,30.19,North,0,0.0,0.0,84,-99.99,,,-99.99,PWS SA v1.10,2013-09-06 12:20:00,
2013-09-06 08:26:00,51.7,47.1,30.19,SW,217,1.7,1.7,84,-99.99,,,-99.99,PWS SA v1.10,2013-09-06 12:26:00,
2013-09-06 08:32:00,52.3,46.7,30.19,North,0,0.0,1.0,82,-99.99,,,-99.99,PWS SA v1.10,2013-09-06 12:32:00,
2013-09-06 08:38:00,52.5,47.0,30.19,North,0,0.0,1.0,81,-99.99,,,-99.99,PWS SA v1.10,2013-09-06 12:38:00,
2013-09-06 08:44:00,53.0,47.2,30.20,North,0,0.0,0.0,82,-99.99,,,-99.99,PWS SA v1.10,2013-09-06 12:44:00,
2013-09-06 08:50:00,53.5,47.4,30.20,North,0,0.0,0.0,80,-99.99,,,-99.99,PWS SA v1.10,2013-09-06 12:50:00,
2013-09-06 08:56:00,53.8,47.3,30.20,North,0,0.0,3.0,78,-99.99,,,-99.99,PWS SA v1.10,2013-09-06 12:56:00,
2013-09-06 09:02:00,54.3,46.7,30.20,North,0,0.0,3.0,76,-99.99,,,-99.99,PWS SA v1.10,2013-09-06 13:02:00,
2013-09-06 09:08:00,54.7,47.0,30.20,North,0,0.0,0.0,75,-99.99,,,-99.99,PWS SA v1.10,2013-09-06 13:08:00,
2013-09-06 09:14:00,54.7,46.9,30.20,North,0,0.0,0.0,75,-99.99,,,-99.99,PWS SA v1.10,2013-09-06 13:14:00,
2013-09-06 09:20:00,55.0,48.0,30.20,North,0,0.0,0.0,77,-99.99,,,-99.99,PWS SA v1.10,2013-09-06 13:20:00,
2013-09-06 09:26:00,55.5,47.4,30.20,North,0,0.0,3.0,74,-99.99,,,-99.99,PWS SA v1.10,2013-09-06 13:26:00,
2013-09-06 09:32:00,55.9,47.8,30.20,SE,125,1.7,3.0,74,-99.99,,,-99.99,PWS SA v1.10,2013-09-06 13:32:00,
2013-09-06 09:38:00,56.3,47.7,30.20,North,0,0.0,3.0,74,-99.99,,,-99.99,PWS SA v1.10,2013-09-06 13:38:00,
2013-09-06 09:44:00,56.8,47.3,30.21,North,0,0.0,3.0,70,-99.99,,,-99.99,PWS SA v1.10,2013-09-06 13:44:00,
2013-09-06 09:50:00,57.0,47.7,30.20,North,0,0.0,3.0,71,-99.99,,,-99.99,PWS SA v1.10,2013-09-06 13:50:00,
2013-09-06 09:56:00,57.3,47.4,30.21,North,0,0.0,0.0,70,-99.99,,,-99.99,PWS SA v1.10,2013-09-06 13:56:00,
2013-09-06 10:02:00,57.7,45.6,30.20,North,0,0.0,0.0,64,-99.99,,,-99.99,PWS SA v1.10,2013-09-06 14:02:00,
2013-09-06 10:08:00,57.8,45.6,30.21,North,0,0.0,1.0,64,-99.99,,,-99.99,PWS SA v1.10,2013-09-06 14:08:00,
2013-09-06 10:14:00,58.3,45.3,30.21,North,0,0.0,1.0,62,-99.99,,,-99.99,PWS SA v1.10,2013-09-06 14:14:00,
2013-09-06 10:20:00,58.7,44.1,30.21,North,0,0.0,1.0,59,-99.99,,,-99.99,PWS SA v1.10,2013-09-06 14:20:00,
2013-09-06 10:26:00,59.1,47.4,30.20,North,0,0.0,0.0,66,-99.99,,,-99.99,PWS SA v1.10,2013-09-06 14:26:00,
2013-09-06 10:32:00,59.2,46.5,30.20,North,0,0.0,0.0,63,-99.99,,,-99.99,PWS SA v1.10,2013-09-06 14:32:00,
2013-09-06 10:38:00,59.7,44.5,30.20,North,0,0.0,0.0,58,-99.99,,,-99.99,PWS SA v1.10,2013-09-06 14:38:00,
2013-09-06 10:44:00,60.1,46.9,30.20,North,0,0.0,0.0,62,-99.99,,,-99.99,PWS SA v1.10,2013-09-06 14:44:00,
2013-09-06 10:50:00,60.2,44.9,30.20,North,0,0.0,0.0,57,-99.99,,,-99.99,PWS SA v1.10,2013-09-06 14:50:00,
2013-09-06 10:56:00,60.7,45.2,30.20,North,0,0.0,1.0,57,-99.99,,,-99.99,PWS SA v1.10,2013-09-06 14:56:00,
2013-09-06 11:02:00,60.7,45.7,30.20,North,0,0.0,1.0,57,-99.99,,,-99.99,PWS SA v1.10,2013-09-06 15:02:00,
2013-09-06 11:08:00,61.1,45.5,30.20,North,0,0.0,0.0,57,-99.99,,,-99.99,PWS SA v1.10,2013-09-06 15:08:00,
2013-09-06 11:14:00,61.4,43.0,30.20,North,0,0.0,0.0,51,-99.99,,,-99.99,PWS SA v1.10,2013-09-06 15:14:00,
2013-09-06 11:20:00,61.8,44.9,30.20,North,0,0.0,1.0,54,-99.99,,,-99.99,PWS SA v1.10,2013-09-06 15:20:00,
2013-09-06 11:26:00,62.2,45.3,30.20,North,0,0.0,1.0,54,-99.99,,,-99.99,PWS SA v1.10,2013-09-06 15:26:00,
2013-09-06 11:32:00,62.0,44.7,30.19,North,0,0.0,1.0,53,-99.99,,,-99.99,PWS SA v1.10,2013-09-06 15:32:00,
2013-09-06 11:38:00,62.5,46.4,30.19,West,274,3.4,3.4,56,-99.99,,,-99.99,PWS SA v1.10,2013-09-06 15:38:00,
2013-09-06 11:44:00,62.9,42.8,30.19,NNW,335,1.7,3.0,48,-99.99,,,-99.99,PWS SA v1.10,2013-09-06 15:44:00,
2013-09-06 11:50:00,63.5,42.4,30.19,North,0,0.0,3.0,46,-99.99,,,-99.99,PWS SA v1.10,2013-09-06 15:50:00,
2013-09-06 11:56:00,64.0,44.7,30.19,NW,311,3.4,3.4,50,-99.99,,,-99.99,PWS SA v1.10,2013-09-06 15:56:00,
2013-09-06 12:02:00,64.1,45.0,30.19,North,0,0.0,3.0,49,-99.99,,,-99.99,PWS SA v1.10,2013-09-06 16:02:00,
2013-09-06 12:08:00,64.5,44.4,30.19,North,0,0.0,3.0,48,-99.99,,,-99.99,PWS SA v1.10,2013-09-06 16:08:00,
2013-09-06 12:14:00,64.6,45.4,30.18,North,0,0.0,3.0,49,-99.99,,,-99.99,PWS SA v1.10,2013-09-06 16:14:00,
2013-09-06 12:20:00,64.5,43.1,30.18,North,0,0.0,3.0,45,-99.99,,,-99.99,PWS SA v1.10,2013-09-06 16:20:00,
2013-09-06 12:26:00,65.0,44.4,30.18,North,0,0.0,1.0,47,-99.99,,,-99.99,PWS SA v1.10,2013-09-06 16:26:00,
2013-09-06 12:32:00,65.6,45.0,30.17,North,0,0.0,1.0,47,-99.99,,,-99.99,PWS SA v1.10,2013-09-06 16:32:00,
2013-09-06 12:38:00,64.9,43.3,30.17,North,0,0.0,0.0,45,-99.99,,,-99.99,PWS SA v1.10,2013-09-06 16:38:00,
2013-09-06 12:44:00,65.0,43.6,30.17,North,0,0.0,5.0,45,-99.99,,,-99.99,PWS SA v1.10,2013-09-06 16:44:00,
2013-09-06 12:50:00,65.6,44.3,30.17,North,0,0.0,5.0,46,-99.99,,,-99.99,PWS SA v1.10,2013-09-06 16:50:00,
2013-09-06 12:56:00,65.7,45.4,30.17,WSW,249,1.7,3.0,48,-99.99,,,-99.99,PWS SA v1.10,2013-09-06 16:56:00,
2013-09-06 13:02:00,66.1,45.4,30.17,North,0,0.0,3.0,47,-99.99,,,-99.99,PWS SA v1.10,2013-09-06 17:02:00,
2013-09-06 13:08:00,66.5,45.8,30.17,NW,325,1.7,3.0,47,-99.99,,,-99.99,PWS SA v1.10,2013-09-06 17:08:00,
2013-09-06 13:14:00,66.8,42.8,30.17,North,0,0.0,1.0,42,-99.99,,,-99.99,PWS SA v1.10,2013-09-06 17:14:00,
2013-09-06 13:20:00,67.4,44.6,30.16,North,0,0.0,1.0,44,-99.99,,,-99.99,PWS SA v1.10,2013-09-06 17:20:00,
2013-09-06 13:26:00,67.8,44.4,30.16,North,0,0.0,3.0,43,-99.99,,,-99.99,PWS SA v1.10,2013-09-06 17:26:00,
2013-09-06 13:32:00,68.2,43.7,30.16,North,0,0.0,3.0,41,-99.99,,,-99.99,PWS SA v1.10,2013-09-06 17:32:00,
2013-09-06 13:38:00,68.2,42.2,30.16,North,0,0.0,1.0,39,-99.99,,,-99.99,PWS SA v1.10,2013-09-06 17:38:00,
2013-09-06 13:44:00,68.4,42.6,30.16,North,0,0.0,3.0,39,-99.99,,,-99.99,PWS SA v1.10,2013-09-06 17:44:00,
2013-09-06 13:50:00,68.4,42.0,30.16,North,0,0.0,3.0,39,-99.99,,,-99.99,PWS SA v1.10,2013-09-06 17:50:00,
2013-09-06 13:56:00,68.5,44.0,30.15,North,0,0.0,3.0,41,-99.99,,,-99.99,PWS SA v1.10,2013-09-06 17:56:00,
2013-09-06 14:02:00,69.5,47.4,30.15,North,0,0.0,0.0,46,-99.99,,,-99.99,PWS SA v1.10,2013-09-06 18:02:00,
2013-09-06 14:08:00,69.1,48.1,30.15,North,0,0.0,0.0,47,-99.99,,,-99.99,PWS SA v1.10,2013-09-06 18:08:00,
2013-09-06 14:14:00,68.7,46.5,30.15,North,0,0.0,5.0,45,-99.99,,,-99.99,PWS SA v1.10,2013-09-06 18:14:00,
2013-09-06 14:20:00,68.7,44.5,30.15,North,0,0.0,5.0,42,-99.99,,,-99.99,PWS SA v1.10,2013-09-06 18:20:00,
2013-09-06 14:26:00,68.3,47.6,30.14,North,0,0.0,3.0,48,-99.99,,,-99.99,PWS SA v1.10,2013-09-06 18:26:00,
2013-09-06 14:32:00,68.2,46.7,30.14,North,0,0.0,1.0,46,-99.99,,,-99.99,PWS SA v1.10,2013-09-06 18:32:00,
2013-09-06 14:38:00,68.3,46.9,30.14,North,0,0.0,1.0,47,-99.99,,,-99.99,PWS SA v1.10,2013-09-06 18:38:00,
2013-09-06 14:44:00,68.3,45.9,30.13,North,0,0.0,1.0,45,-99.99,,,-99.99,PWS SA v1.10,2013-09-06 18:44:00,
2013-09-06 14:50:00,68.3,46.9,30.13,North,0,0.0,3.0,46,-99.99,,,-99.99,PWS SA v1.10,2013-09-06 18:50:00,
2013-09-06 14:56:00,68.0,44.5,30.13,SE,140,1.7,3.0,43,-99.99,,,-99.99,PWS SA v1.10,2013-09-06 18:56:00,
2013-09-06 15:02:00,68.0,44.4,30.13,WNW,302,1.7,3.0,43,-99.99,,,-99.99,PWS SA v1.10,2013-09-06 19:02:00,
2013-09-06 15:08:00,68.0,46.8,30.12,North,0,0.0,10.0,47,-99.99,,,-99.99,PWS SA v1.10,2013-09-06 19:08:00,
2013-09-06 15:14:00,68.2,45.4,30.12,North,0,0.0,10.0,44,-99.99,,,-99.99,PWS SA v1.10,2013-09-06 19:14:00,
2013-09-06 15:20:00,67.9,43.2,30.12,ENE,76,3.4,10.0,41,-99.99,,,-99.99,PWS SA v1.10,2013-09-06 19:20:00,
2013-09-06 15:26:00,68.2,47.6,30.12,North,0,0.0,3.0,48,-99.99,,,-99.99,PWS SA v1.10,2013-09-06 19:26:00,
2013-09-06 15:32:00,68.1,44.6,30.12,North,0,0.0,3.0,43,-99.99,,,-99.99,PWS SA v1.10,2013-09-06 19:32:00,
2013-09-06 15:38:00,67.7,43.0,30.11,North,0,0.0,3.0,41,-99.99,,,-99.99,PWS SA v1.10,2013-09-06 19:38:00,
2013-09-06 15:44:00,68.1,45.3,30.11,North,0,0.0,3.0,44,-99.99,,,-99.99,PWS SA v1.10,2013-09-06 19:44:00,
2013-09-06 15:50:00,68.5,46.6,30.11,SSE,168,3.4,3.4,45,-99.99,,,-99.99,PWS SA v1.10,2013-09-06 19:50:00,
2013-09-06 15:56:00,68.8,47.2,30.11,North,0,0.0,3.0,47,-99.99,,,-99.99,PWS SA v1.10,2013-09-06 19:56:00,
2013-09-06 16:02:00,68.6,46.8,30.11,North,0,0.0,5.0,46,-99.99,,,-99.99,PWS SA v1.10,2013-09-06 20:02:00,
2013-09-06 16:08:00,68.0,47.8,30.10,North,0,0.0,5.0,48,-99.99,,,-99.99,PWS SA v1.10,2013-09-06 20:08:00,
2013-09-06 16:14:00,68.5,46.9,30.10,North,0,0.0,3.0,47,-99.99,,,-99.99,PWS SA v1.10,2013-09-06 20:14:00,
2013-09-06 16:20:00,68.5,45.6,30.10,North,0,0.0,5.0,44,-99.99,,,-99.99,PWS SA v1.10,2013-09-06 20:20:00,
2013-09-06 16:26:00,67.3,47.5,30.10,ESE,113,3.4,5.0,48,-99.99,,,-99.99,PWS SA v1.10,2013-09-06 20:26:00,
2013-09-06 16:32:00,67.0,45.3,30.10,West,279,1.7,3.0,45,-99.99,,,-99.99,PWS SA v1.10,2013-09-06 20:32:00,
2013-09-06 16:38:00,67.1,46.6,30.09,North,0,0.0,3.0,48,-99.99,,,-99.99,PWS SA v1.10,2013-09-06 20:38:00,
2013-09-06 16:44:00,67.6,46.5,30.10,North,0,0.0,1.0,47,-99.99,,,-99.99,PWS SA v1.10,2013-09-06 20:44:00,
2013-09-06 16:50:00,67.4,46.5,30.09,North,0,0.0,0.0,47,-99.99,,,-99.99,PWS SA v1.10,2013-09-06 20:50:00,
2013-09-06 16:56:00,67.5,46.0,30.09,North,0,0.0,6.0,46,-99.99,,,-99.99,PWS SA v1.10,2013-09-06 20:56:00,
2013-09-06 17:02:00,67.3,45.0,30.10,SE,140,1.7,6.0,44,-99.99,,,-99.99,PWS SA v1.10,2013-09-06 21:02:00,
2013-09-06 17:08:00,68.0,47.6,30.10,North,0,0.0,1.0,48,-99.99,,,-99.99,PWS SA v1.10,2013-09-06 21:08:00,
2013-09-06 17:14:00,68.8,44.8,30.09,North,0,0.0,3.0,42,-99.99,,,-99.99,PWS SA v1.10,2013-09-06 21:14:00,
2013-09-06 17:20:00,69.5,45.4,30.09,North,0,0.0,3.0,42,-99.99,,,-99.99,PWS SA v1.10,2013-09-06 21:20:00,
2013-09-06 17:26:00,70.0,44.3,30.09,North,0,0.0,0.0,39,-99.99,,,-99.99,PWS SA v1.10,2013-09-06 21:26:00,
2013-09-06 17:32:00,68.7,45.6,30.09,North,0,0.0,3.0,43,-99.99,,,-99.99,PWS SA v1.10,2013-09-06 21:32:00,
2013-09-06 17:38:00,67.6,45.8,30.08,West,271,3.4,3.4,45,-99.99,,,-99.99,PWS SA v1.10,2013-09-06 21:38:00,
2013-09-06 17:44:00,66.7,45.2,30.09,NW,311,1.7,3.0,46,-99.99,,,-99.99,PWS SA v1.10,2013-09-06 21:44:00,
2013-09-06 17:50:00,66.4,47.3,30.09,North,0,0.0,3.0,50,-99.99,,,-99.99,PWS SA v1.10,2013-09-06 21:50:00,
2013-09-06 17:56:00,65.9,47.3,30.09,North,0,0.0,1.0,51,-99.99,,,-99.99,PWS SA v1.10,2013-09-06 21:56:00,
2013-09-06 18:02:00,65.6,46.8,30.09,North,0,0.0,1.0,51,-99.99,,,-99.99,PWS SA v1.10,2013-09-06 22:02:00,
2013-09-06 18:08:00,65.3,47.8,30.08,North,0,0.0,0.0,53,-99.99,,,-99.99,PWS SA v1.10,2013-09-06 22:08:00,
2013-09-06 18:14:00,65.0,48.3,30.10,North,0,0.0,0.0,54,-99.99,,,-99.99,PWS SA v1.10,2013-09-06 22:14:00,
2013-09-06 18:20:00,64.7,47.2,30.09,North,0,0.0,0.0,53,-99.99,,,-99.99,PWS SA v1.10,2013-09-06 22:20:00,
2013-09-06 18:26:00,64.5,48.0,30.09,North,0,0.0,0.0,55,-99.99,,,-99.99,PWS SA v1.10,2013-09-06 22:26:00,
2013-09-06 18:32:00,64.0,48.7,30.08,WSW,244,1.7,1.7,57,-99.99,,,-99.99,PWS SA v1.10,2013-09-06 22:32:00,
2013-09-06 18:38:00,63.7,49.6,30.08,North,0,0.0,1.0,59,-99.99,,,-99.99,PWS SA v1.10,2013-09-06 22:38:00,
2013-09-06 18:44:00,63.2,50.3,30.08,North,0,0.0,1.0,62,-99.99,,,-99.99,PWS SA v1.10,2013-09-06 22:44:00,
2013-09-06 18:50:00,62.7,50.7,30.08,North,0,0.0,0.0,64,-99.99,,,-99.99,PWS SA v1.10,2013-09-06 22:50:00,
2013-09-06 18:56:00,62.2,50.5,30.08,North,0,0.0,0.0,65,-99.99,,,-99.99,PWS SA v1.10,2013-09-06 22:56:00,
2013-09-06 19:02:00,61.6,51.3,30.08,North,0,0.0,0.0,69,-99.99,,,-99.99,PWS SA v1.10,2013-09-06 23:02:00,
2013-09-06 19:08:00,61.2,50.2,30.09,North,0,0.0,0.0,66,-99.99,,,-99.99,PWS SA v1.10,2013-09-06 23:08:00,
2013-09-06 19:14:00,60.8,50.9,30.08,North,0,0.0,0.0,69,-99.99,,,-99.99,PWS SA v1.10,2013-09-06 23:14:00,
2013-09-06 19:20:00,60.6,50.5,30.08,North,0,0.0,0.0,68,-99.99,,,-99.99,PWS SA v1.10,2013-09-06 23:20:00,
2013-09-06 19:26:00,60.1,50.1,30.08,North,0,0.0,0.0,69,-99.99,,,-99.99,PWS SA v1.10,2013-09-06 23:26:00,
2013-09-06 19:32:00,59.7,50.4,30.08,North,0,0.0,0.0,71,-99.99,,,-99.99,PWS SA v1.10,2013-09-06 23:32:00,
2013-09-06 19:38:00,59.5,49.7,30.08,North,0,0.0,0.0,69,-99.99,,,-99.99,PWS SA v1.10,2013-09-06 23:38:00,
2013-09-06 19:44:00,59.2,49.8,30.08,North,0,0.0,0.0,70,-99.99,,,-99.99,PWS SA v1.10,2013-09-06 23:44:00,
2013-09-06 19:50:00,58.9,49.9,30.08,North,0,0.0,0.0,71,-99.99,,,-99.99,PWS SA v1.10,2013-09-06 23:50:00,
2013-09-06 19:56:00,58.7,50.7,30.09,North,0,0.0,0.0,73,-99.99,,,-99.99,PWS SA v1.10,2013-09-06 23:56:00,
2013-09-06 20:02:00,58.4,50.9,30.09,North,0,0.0,0.0,75,-99.99,,,-99.99,PWS SA v1.10,2013-09-07 00:02:00,
2013-09-06 20:08:00,58.3,50.7,30.09,North,0,0.0,0.0,75,-99.99,,,-99.99,PWS SA v1.10,2013-09-07 00:08:00,
2013-09-06 20:14:00,58.0,50.9,30.09,North,0,0.0,0.0,76,-99.99,,,-99.99,PWS SA v1.10,2013-09-07 00:14:00,
2013-09-06 20:20:00,57.8,50.2,30.09,North,0,0.0,0.0,75,-99.99,,,-99.99,PWS SA v1.10,2013-09-07 00:20:00,
2013-09-06 20:26:00,57.7,50.1,30.09,North,0,0.0,0.0,75,-99.99,,,-99.99,PWS SA v1.10,2013-09-07 00:26:00,
2013-09-06 20:32:00,57.5,49.8,30.09,North,0,0.0,0.0,74,-99.99,,,-99.99,PWS SA v1.10,2013-09-07 00:32:00,
2013-09-06 20:38:00,57.4,49.9,30.09,North,0,0.0,0.0,75,-99.99,,,-99.99,PWS SA v1.10,2013-09-07 00:38:00,
2013-09-06 20:44:00,57.4,50.8,30.09,North,0,0.0,0.0,78,-99.99,,,-99.99,PWS SA v1.10,2013-09-07 00:44:00,
2013-09-06 20:50:00,57.1,50.1,30.08,North,0,0.0,0.0,77,-99.99,,,-99.99,PWS SA v1.10,2013-09-07 00:50:00,
2013-09-06 20:56:00,56.9,49.9,30.09,North,0,0.0,0.0,76,-99.99,,,-99.99,PWS SA v1.10,2013-09-07 00:56:00,
2013-09-06 21:02:00,56.7,49.5,30.09,North,0,0.0,0.0,76,-99.99,,,-99.99,PWS SA v1.10,2013-09-07 01:02:00,
2013-09-06 21:08:00,56.5,49.8,30.09,North,0,0.0,0.0,78,-99.99,,,-99.99,PWS SA v1.10,2013-09-07 01:08:00,
2013-09-06 21:14:00,56.4,49.6,30.09,North,0,0.0,0.0,78,-99.99,,,-99.99,PWS SA v1.10,2013-09-07 01:14:00,
2013-09-06 21:20:00,56.2,49.8,30.09,North,0,0.0,0.0,78,-99.99,,,-99.99,PWS SA v1.10,2013-09-07 01:20:00,
2013-09-06 21:26:00,56.0,49.7,30.08,North,0,0.0,0.0,79,-99.99,,,-99.99,PWS SA v1.10,2013-09-07 01:26:00,
2013-09-06 21:32:00,56.0,49.5,30.09,North,0,0.0,0.0,78,-99.99,,,-99.99,PWS SA v1.10,2013-09-07 01:32:00,
2013-09-06 21:38:00,55.7,49.3,30.08,North,0,0.0,0.0,78,-99.99,,,-99.99,PWS SA v1.10,2013-09-07 01:38:00,
2013-09-06 21:44:00,55.7,49.4,30.08,North,0,0.0,0.0,79,-99.99,,,-99.99,PWS SA v1.10,2013-09-07 01:44:00,
2013-09-06 21:50:00,55.6,49.7,30.08,North,0,0.0,0.0,81,-99.99,,,-99.99,PWS SA v1.10,2013-09-07 01:50:00,
2013-09-06 21:56:00,55.5,49.9,30.08,North,0,0.0,0.0,81,-99.99,,,-99.99,PWS SA v1.10,2013-09-07 01:56:00,
2013-09-06 22:02:00,55.3,49.5,30.08,North,0,0.0,0.0,80,-99.99,,,-99.99,PWS SA v1.10,2013-09-07 02:02:00,
2013-09-06 22:08:00,55.2,49.7,30.08,North,0,0.0,0.0,81,-99.99,,,-99.99,PWS SA v1.10,2013-09-07 02:08:00,
2013-09-06 22:14:00,55.1,49.7,30.08,North,0,0.0,0.0,82,-99.99,,,-99.99,PWS SA v1.10,2013-09-07 02:14:00,
2013-09-06 22:20:00,54.8,49.9,30.08,North,0,0.0,0.0,82,-99.99,,,-99.99,PWS SA v1.10,2013-09-07 02:20:00,
2013-09-06 22:26:00,54.7,49.4,30.08,North,0,0.0,0.0,82,-99.99,,,-99.99,PWS SA v1.10,2013-09-07 02:26:00,
2013-09-06 22:32:00,54.6,49.6,30.07,North,0,0.0,0.0,82,-99.99,,,-99.99,PWS SA v1.10,2013-09-07 02:32:00,
2013-09-06 22:38:00,54.3,49.3,30.08,North,0,0.0,0.0,82,-99.99,,,-99.99,PWS SA v1.10,2013-09-07 02:38:00,
2013-09-06 22:44:00,54.2,49.5,30.07,North,0,0.0,0.0,83,-99.99,,,-99.99,PWS SA v1.10,2013-09-07 02:44:00,
2013-09-06 22:50:00,54.0,49.9,30.07,North,0,0.0,0.0,85,-99.99,,,-99.99,PWS SA v1.10,2013-09-07 02:50:00,
2013-09-06 22:56:00,53.8,49.7,30.07,North,0,0.0,0.0,85,-99.99,,,-99.99,PWS SA v1.10,2013-09-07 02:56:00,
2013-09-06 23:02:00,53.7,49.5,30.08,North,0,0.0,0.0,85,-99.99,,,-99.99,PWS SA v1.10,2013-09-07 03:02:00,
2013-09-06 23:08:00,53.4,49.4,30.07,North,0,0.0,0.0,85,-99.99,,,-99.99,PWS SA v1.10,2013-09-07 03:08:00,
2013-09-06 23:14:00,53.3,49.3,30.07,North,0,0.0,0.0,85,-99.99,,,-99.99,PWS SA v1.10,2013-09-07 03:14:00,
2013-09-06 23:20:00,53.1,49.3,30.07,North,0,0.0,0.0,85,-99.99,,,-99.99,PWS SA v1.10,2013-09-07 03:20:00,
2013-09-06 23:26:00,53.0,49.2,30.07,North,0,0.0,0.0,85,-99.99,,,-99.99,PWS SA v1.10,2013-09-07 03:26:00,
2013-09-06 23:32:00,52.9,48.7,30.06,North,0,0.0,0.0,85,-99.99,,,-99.99,PWS SA v1.10,2013-09-07 03:32:00,
2013-09-06 23:38:00,52.8,49.3,30.06,North,0,0.0,0.0,86,-99.99,,,-99.99,PWS SA v1.10,2013-09-07 03:38:00,
2013-09-06 23:44:00,52.9,49.1,30.06,North,0,0.0,0.0,86,-99.99,,,-99.99,PWS SA v1.10,2013-09-07 03:44:00,
2013-09-06 23:50:00,52.9,49.1,30.06,North,0,0.0,0.0,87,-99.99,,,-99.99,PWS SA v1.10,2013-09-07 03:50:00,
2013-09-06 23:56:00,52.9,49.3,30.05,North,0,0.0,0.0,86,-99.99,,,-99.99,PWS SA v1.10,2013-09-07 03:56:00,